Index of /20260426/WXO-DD/model_rdps/10km/18/076
Name Last modified Size Description
Parent Directory -
20260426T18Z_MSC_RDPS_AbsoluteVorticity_IsbL-0250_RLatLon0.09_PT076H.grib2 2026-04-26 21:43 636K
20260426T18Z_MSC_RDPS_AbsoluteVorticity_IsbL-0500_RLatLon0.09_PT076H.grib2 2026-04-26 21:43 572K
20260426T18Z_MSC_RDPS_AbsoluteVorticity_IsbL-0700_RLatLon0.09_PT076H.grib2 2026-04-26 21:43 621K
20260426T18Z_MSC_RDPS_AbsoluteVorticity_IsbL-0850_RLatLon0.09_PT076H.grib2 2026-04-26 21:43 771K
20260426T18Z_MSC_RDPS_AirTemp_AGL-120m_RLatLon0.09_PT076H.grib2 2026-04-26 21:43 388K
20260426T18Z_MSC_RDPS_AirTemp_AGL-2m_RLatLon0.09_PT076H.grib2 2026-04-26 21:43 618K
20260426T18Z_MSC_RDPS_AirTemp_AGL-40m_RLatLon0.09_PT076H.grib2 2026-04-26 21:43 397K
20260426T18Z_MSC_RDPS_AirTemp_AGL-80m_RLatLon0.09_PT076H.grib2 2026-04-26 21:43 392K
20260426T18Z_MSC_RDPS_AirTemp_IsbL-0001_RLatLon0.09_PT076H.grib2 2026-04-26 21:43 278K
20260426T18Z_MSC_RDPS_AirTemp_IsbL-0005_RLatLon0.09_PT076H.grib2 2026-04-26 21:43 294K
20260426T18Z_MSC_RDPS_AirTemp_IsbL-0010_RLatLon0.09_PT076H.grib2 2026-04-26 21:43 306K
20260426T18Z_MSC_RDPS_AirTemp_IsbL-0020_RLatLon0.09_PT076H.grib2 2026-04-26 21:43 320K
20260426T18Z_MSC_RDPS_AirTemp_IsbL-0030_RLatLon0.09_PT076H.grib2 2026-04-26 21:43 342K
20260426T18Z_MSC_RDPS_AirTemp_IsbL-0050_RLatLon0.09_PT076H.grib2 2026-04-26 21:43 315K
20260426T18Z_MSC_RDPS_AirTemp_IsbL-0100_RLatLon0.09_PT076H.grib2 2026-04-26 21:43 429K
20260426T18Z_MSC_RDPS_AirTemp_IsbL-0150_RLatLon0.09_PT076H.grib2 2026-04-26 21:43 429K
20260426T18Z_MSC_RDPS_AirTemp_IsbL-0175_RLatLon0.09_PT076H.grib2 2026-04-26 21:43 417K
20260426T18Z_MSC_RDPS_AirTemp_IsbL-0200_RLatLon0.09_PT076H.grib2 2026-04-26 21:43 421K
20260426T18Z_MSC_RDPS_AirTemp_IsbL-0225_RLatLon0.09_PT076H.grib2 2026-04-26 21:43 422K
20260426T18Z_MSC_RDPS_AirTemp_IsbL-0250_RLatLon0.09_PT076H.grib2 2026-04-26 21:43 432K
20260426T18Z_MSC_RDPS_AirTemp_IsbL-0275_RLatLon0.09_PT076H.grib2 2026-04-26 21:43 410K
20260426T18Z_MSC_RDPS_AirTemp_IsbL-0300_RLatLon0.09_PT076H.grib2 2026-04-26 21:43 416K
20260426T18Z_MSC_RDPS_AirTemp_IsbL-0350_RLatLon0.09_PT076H.grib2 2026-04-26 21:43 428K
20260426T18Z_MSC_RDPS_AirTemp_IsbL-0400_RLatLon0.09_PT076H.grib2 2026-04-26 21:43 428K
20260426T18Z_MSC_RDPS_AirTemp_IsbL-0450_RLatLon0.09_PT076H.grib2 2026-04-26 21:43 400K
20260426T18Z_MSC_RDPS_AirTemp_IsbL-0500_RLatLon0.09_PT076H.grib2 2026-04-26 21:43 410K
20260426T18Z_MSC_RDPS_AirTemp_IsbL-0550_RLatLon0.09_PT076H.grib2 2026-04-26 21:43 429K
20260426T18Z_MSC_RDPS_AirTemp_IsbL-0600_RLatLon0.09_PT076H.grib2 2026-04-26 21:43 449K
20260426T18Z_MSC_RDPS_AirTemp_IsbL-0650_RLatLon0.09_PT076H.grib2 2026-04-26 21:43 464K
20260426T18Z_MSC_RDPS_AirTemp_IsbL-0700_RLatLon0.09_PT076H.grib2 2026-04-26 21:43 382K
20260426T18Z_MSC_RDPS_AirTemp_IsbL-0750_RLatLon0.09_PT076H.grib2 2026-04-26 21:43 413K
20260426T18Z_MSC_RDPS_AirTemp_IsbL-0800_RLatLon0.09_PT076H.grib2 2026-04-26 21:43 451K
20260426T18Z_MSC_RDPS_AirTemp_IsbL-0850_RLatLon0.09_PT076H.grib2 2026-04-26 21:43 498K
20260426T18Z_MSC_RDPS_AirTemp_IsbL-0875_RLatLon0.09_PT076H.grib2 2026-04-26 21:43 518K
20260426T18Z_MSC_RDPS_AirTemp_IsbL-0900_RLatLon0.09_PT076H.grib2 2026-04-26 21:43 526K
20260426T18Z_MSC_RDPS_AirTemp_IsbL-0925_RLatLon0.09_PT076H.grib2 2026-04-26 21:43 522K
20260426T18Z_MSC_RDPS_AirTemp_IsbL-0950_RLatLon0.09_PT076H.grib2 2026-04-26 21:43 521K
20260426T18Z_MSC_RDPS_AirTemp_IsbL-0970_RLatLon0.09_PT076H.grib2 2026-04-26 21:43 525K
20260426T18Z_MSC_RDPS_AirTemp_IsbL-0985_RLatLon0.09_PT076H.grib2 2026-04-26 21:43 516K
20260426T18Z_MSC_RDPS_AirTemp_IsbL-1000_RLatLon0.09_PT076H.grib2 2026-04-26 21:43 506K
20260426T18Z_MSC_RDPS_AirTemp_IsbL-1015_RLatLon0.09_PT076H.grib2 2026-04-26 21:43 502K
20260426T18Z_MSC_RDPS_Albedo_Sfc_RLatLon0.09_PT076H.grib2 2026-04-26 21:43 158K
20260426T18Z_MSC_RDPS_CAPE_Sfc_RLatLon0.09_PT076H.grib2 2026-04-26 21:43 1.7M
20260426T18Z_MSC_RDPS_CIN_Sfc_RLatLon0.09_PT076H.grib2 2026-04-26 21:43 1.2M
20260426T18Z_MSC_RDPS_CloudWater_EAtm_RLatLon0.09_PT076H.grib2 2026-04-26 21:43 221K
20260426T18Z_MSC_RDPS_ConvectivePrecip-Accum_Sfc_RLatLon0.09_PT076H.grib2 2026-04-26 21:43 1.3M
20260426T18Z_MSC_RDPS_DewPointDepression_AGL-2m_RLatLon0.09_PT076H.grib2 2026-04-26 21:43 415K
20260426T18Z_MSC_RDPS_DewPointDepression_IsbL-0001_RLatLon0.09_PT076H.grib2 2026-04-26 21:43 193
20260426T18Z_MSC_RDPS_DewPointDepression_IsbL-0005_RLatLon0.09_PT076H.grib2 2026-04-26 21:43 193
20260426T18Z_MSC_RDPS_DewPointDepression_IsbL-0010_RLatLon0.09_PT076H.grib2 2026-04-26 21:43 193
20260426T18Z_MSC_RDPS_DewPointDepression_IsbL-0020_RLatLon0.09_PT076H.grib2 2026-04-26 21:43 193
20260426T18Z_MSC_RDPS_DewPointDepression_IsbL-0030_RLatLon0.09_PT076H.grib2 2026-04-26 21:43 193
20260426T18Z_MSC_RDPS_DewPointDepression_IsbL-0050_RLatLon0.09_PT076H.grib2 2026-04-26 21:43 91K
20260426T18Z_MSC_RDPS_DewPointDepression_IsbL-0100_RLatLon0.09_PT076H.grib2 2026-04-26 21:43 128K
20260426T18Z_MSC_RDPS_DewPointDepression_IsbL-0150_RLatLon0.09_PT076H.grib2 2026-04-26 21:43 152K
20260426T18Z_MSC_RDPS_DewPointDepression_IsbL-0175_RLatLon0.09_PT076H.grib2 2026-04-26 21:43 183K
20260426T18Z_MSC_RDPS_DewPointDepression_IsbL-0200_RLatLon0.09_PT076H.grib2 2026-04-26 21:43 224K
20260426T18Z_MSC_RDPS_DewPointDepression_IsbL-0225_RLatLon0.09_PT076H.grib2 2026-04-26 21:43 270K
20260426T18Z_MSC_RDPS_DewPointDepression_IsbL-0250_RLatLon0.09_PT076H.grib2 2026-04-26 21:43 305K
20260426T18Z_MSC_RDPS_DewPointDepression_IsbL-0275_RLatLon0.09_PT076H.grib2 2026-04-26 21:43 311K
20260426T18Z_MSC_RDPS_DewPointDepression_IsbL-0300_RLatLon0.09_PT076H.grib2 2026-04-26 21:43 327K
20260426T18Z_MSC_RDPS_DewPointDepression_IsbL-0350_RLatLon0.09_PT076H.grib2 2026-04-26 21:43 331K
20260426T18Z_MSC_RDPS_DewPointDepression_IsbL-0400_RLatLon0.09_PT076H.grib2 2026-04-26 21:43 341K
20260426T18Z_MSC_RDPS_DewPointDepression_IsbL-0450_RLatLon0.09_PT076H.grib2 2026-04-26 21:43 348K
20260426T18Z_MSC_RDPS_DewPointDepression_IsbL-0500_RLatLon0.09_PT076H.grib2 2026-04-26 21:43 355K
20260426T18Z_MSC_RDPS_DewPointDepression_IsbL-0550_RLatLon0.09_PT076H.grib2 2026-04-26 21:43 367K
20260426T18Z_MSC_RDPS_DewPointDepression_IsbL-0600_RLatLon0.09_PT076H.grib2 2026-04-26 21:43 380K
20260426T18Z_MSC_RDPS_DewPointDepression_IsbL-0650_RLatLon0.09_PT076H.grib2 2026-04-26 21:43 386K
20260426T18Z_MSC_RDPS_DewPointDepression_IsbL-0700_RLatLon0.09_PT076H.grib2 2026-04-26 21:43 396K
20260426T18Z_MSC_RDPS_DewPointDepression_IsbL-0750_RLatLon0.09_PT076H.grib2 2026-04-26 21:43 417K
20260426T18Z_MSC_RDPS_DewPointDepression_IsbL-0800_RLatLon0.09_PT076H.grib2 2026-04-26 21:43 449K
20260426T18Z_MSC_RDPS_DewPointDepression_IsbL-0850_RLatLon0.09_PT076H.grib2 2026-04-26 21:43 471K
20260426T18Z_MSC_RDPS_DewPointDepression_IsbL-0875_RLatLon0.09_PT076H.grib2 2026-04-26 21:43 474K
20260426T18Z_MSC_RDPS_DewPointDepression_IsbL-0900_RLatLon0.09_PT076H.grib2 2026-04-26 21:43 467K
20260426T18Z_MSC_RDPS_DewPointDepression_IsbL-0925_RLatLon0.09_PT076H.grib2 2026-04-26 21:43 452K
20260426T18Z_MSC_RDPS_DewPointDepression_IsbL-0950_RLatLon0.09_PT076H.grib2 2026-04-26 21:43 442K
20260426T18Z_MSC_RDPS_DewPointDepression_IsbL-0970_RLatLon0.09_PT076H.grib2 2026-04-26 21:43 430K
20260426T18Z_MSC_RDPS_DewPointDepression_IsbL-0985_RLatLon0.09_PT076H.grib2 2026-04-26 21:43 425K
20260426T18Z_MSC_RDPS_DewPointDepression_IsbL-1000_RLatLon0.09_PT076H.grib2 2026-04-26 21:43 421K
20260426T18Z_MSC_RDPS_DewPointDepression_IsbL-1015_RLatLon0.09_PT076H.grib2 2026-04-26 21:43 412K
20260426T18Z_MSC_RDPS_DewPoint_AGL-2m_RLatLon0.09_PT076H.grib2 2026-04-26 21:43 393K
20260426T18Z_MSC_RDPS_DownwardLongwaveRadiationFlux-Accum_Sfc_RLatLon0.09_PT076H.grib2 2026-04-26 21:43 433K
20260426T18Z_MSC_RDPS_DownwardShortwaveRadiationFlux-Accum_NTAtm_RLatLon0.09_PT076H.grib2 2026-04-26 21:43 104K
20260426T18Z_MSC_RDPS_DownwardShortwaveRadiationFlux-Accum_Sfc_RLatLon0.09_PT076H.grib2 2026-04-26 21:43 638K
20260426T18Z_MSC_RDPS_FreezingRain-Accum1h_Sfc_RLatLon0.09_PT076H.grib2 2026-04-26 21:43 11K
20260426T18Z_MSC_RDPS_FreezingRain-Accum_Sfc_RLatLon0.09_PT076H.grib2 2026-04-26 21:43 216K
20260426T18Z_MSC_RDPS_GeopotentialHeight_IsbL-0001_RLatLon0.09_PT076H.grib2 2026-04-26 21:43 244K
20260426T18Z_MSC_RDPS_GeopotentialHeight_IsbL-0005_RLatLon0.09_PT076H.grib2 2026-04-26 21:43 310K
20260426T18Z_MSC_RDPS_GeopotentialHeight_IsbL-0010_RLatLon0.09_PT076H.grib2 2026-04-26 21:43 306K
20260426T18Z_MSC_RDPS_GeopotentialHeight_IsbL-0020_RLatLon0.09_PT076H.grib2 2026-04-26 21:43 305K
20260426T18Z_MSC_RDPS_GeopotentialHeight_IsbL-0030_RLatLon0.09_PT076H.grib2 2026-04-26 21:43 306K
20260426T18Z_MSC_RDPS_GeopotentialHeight_IsbL-0050_RLatLon0.09_PT076H.grib2 2026-04-26 21:43 341K
20260426T18Z_MSC_RDPS_GeopotentialHeight_IsbL-0100_RLatLon0.09_PT076H.grib2 2026-04-26 21:43 285K
20260426T18Z_MSC_RDPS_GeopotentialHeight_IsbL-0150_RLatLon0.09_PT076H.grib2 2026-04-26 21:43 232K
20260426T18Z_MSC_RDPS_GeopotentialHeight_IsbL-0175_RLatLon0.09_PT076H.grib2 2026-04-26 21:43 267K
20260426T18Z_MSC_RDPS_GeopotentialHeight_IsbL-0200_RLatLon0.09_PT076H.grib2 2026-04-26 21:43 269K
20260426T18Z_MSC_RDPS_GeopotentialHeight_IsbL-0225_RLatLon0.09_PT076H.grib2 2026-04-26 21:43 269K
20260426T18Z_MSC_RDPS_GeopotentialHeight_IsbL-0250_RLatLon0.09_PT076H.grib2 2026-04-26 21:43 270K
20260426T18Z_MSC_RDPS_GeopotentialHeight_IsbL-0275_RLatLon0.09_PT076H.grib2 2026-04-26 21:43 268K
20260426T18Z_MSC_RDPS_GeopotentialHeight_IsbL-0300_RLatLon0.09_PT076H.grib2 2026-04-26 21:43 236K
20260426T18Z_MSC_RDPS_GeopotentialHeight_IsbL-0350_RLatLon0.09_PT076H.grib2 2026-04-26 21:43 233K
20260426T18Z_MSC_RDPS_GeopotentialHeight_IsbL-0400_RLatLon0.09_PT076H.grib2 2026-04-26 21:43 230K
20260426T18Z_MSC_RDPS_GeopotentialHeight_IsbL-0450_RLatLon0.09_PT076H.grib2 2026-04-26 21:43 297K
20260426T18Z_MSC_RDPS_GeopotentialHeight_IsbL-0500_RLatLon0.09_PT076H.grib2 2026-04-26 21:43 293K
20260426T18Z_MSC_RDPS_GeopotentialHeight_IsbL-0550_RLatLon0.09_PT076H.grib2 2026-04-26 21:43 290K
20260426T18Z_MSC_RDPS_GeopotentialHeight_IsbL-0600_RLatLon0.09_PT076H.grib2 2026-04-26 21:43 286K
20260426T18Z_MSC_RDPS_GeopotentialHeight_IsbL-0650_RLatLon0.09_PT076H.grib2 2026-04-26 21:43 257K
20260426T18Z_MSC_RDPS_GeopotentialHeight_IsbL-0700_RLatLon0.09_PT076H.grib2 2026-04-26 21:43 337K
20260426T18Z_MSC_RDPS_GeopotentialHeight_IsbL-0750_RLatLon0.09_PT076H.grib2 2026-04-26 21:43 339K
20260426T18Z_MSC_RDPS_GeopotentialHeight_IsbL-0800_RLatLon0.09_PT076H.grib2 2026-04-26 21:43 346K
20260426T18Z_MSC_RDPS_GeopotentialHeight_IsbL-0850_RLatLon0.09_PT076H.grib2 2026-04-26 21:43 354K
20260426T18Z_MSC_RDPS_GeopotentialHeight_IsbL-0875_RLatLon0.09_PT076H.grib2 2026-04-26 21:43 358K
20260426T18Z_MSC_RDPS_GeopotentialHeight_IsbL-0900_RLatLon0.09_PT076H.grib2 2026-04-26 21:43 362K
20260426T18Z_MSC_RDPS_GeopotentialHeight_IsbL-0925_RLatLon0.09_PT076H.grib2 2026-04-26 21:43 366K
20260426T18Z_MSC_RDPS_GeopotentialHeight_IsbL-0950_RLatLon0.09_PT076H.grib2 2026-04-26 21:43 369K
20260426T18Z_MSC_RDPS_GeopotentialHeight_IsbL-0970_RLatLon0.09_PT076H.grib2 2026-04-26 21:43 375K
20260426T18Z_MSC_RDPS_GeopotentialHeight_IsbL-0985_RLatLon0.09_PT076H.grib2 2026-04-26 21:43 384K
20260426T18Z_MSC_RDPS_GeopotentialHeight_IsbL-1000_RLatLon0.09_PT076H.grib2 2026-04-26 21:43 396K
20260426T18Z_MSC_RDPS_GeopotentialHeight_IsbL-1015_RLatLon0.09_PT076H.grib2 2026-04-26 21:43 411K
20260426T18Z_MSC_RDPS_Humidex_Sfc_RLatLon0.09_PT076H.grib2 2026-04-26 21:43 2.4M
20260426T18Z_MSC_RDPS_IcePellets-Accum1h_Sfc_RLatLon0.09_PT076H.grib2 2026-04-26 21:43 2.0K
20260426T18Z_MSC_RDPS_IcePellets-Accum_Sfc_RLatLon0.09_PT076H.grib2 2026-04-26 21:43 40K
20260426T18Z_MSC_RDPS_KIndex_Sfc_RLatLon0.09_PT076H.grib2 2026-04-26 21:43 2.5M
20260426T18Z_MSC_RDPS_LatentHeatNetFlux_Sfc_RLatLon0.09_PT076H.grib2 2026-04-26 21:43 291K
20260426T18Z_MSC_RDPS_LiftedIndex-MU-VT_IsbL-0500_RLatLon0.09_PT076H.grib2 2026-04-26 21:43 2.4M
20260426T18Z_MSC_RDPS_NetLongwaveRadiationFlux-Accum_Sfc_RLatLon0.09_PT076H.grib2 2026-04-26 21:43 480K
20260426T18Z_MSC_RDPS_NetShortwaveRadiationFlux-Accum_Sfc_RLatLon0.09_PT076H.grib2 2026-04-26 21:43 641K
20260426T18Z_MSC_RDPS_PlanetaryBoundaryLayerHeight_Sfc_RLatLon0.09_PT076H.grib2 2026-04-26 21:43 1.0M
20260426T18Z_MSC_RDPS_Precip-Accum1h_Sfc_RLatLon0.09_PT076H.grib2 2026-04-26 21:43 1.2M
20260426T18Z_MSC_RDPS_Precip-Accum_Sfc_RLatLon0.09_PT076H.grib2 2026-04-26 21:43 2.2M
20260426T18Z_MSC_RDPS_PrecipRate_Sfc_RLatLon0.09_PT076H.grib2 2026-04-26 21:43 169K
20260426T18Z_MSC_RDPS_PrecipType-Instant_Sfc_RLatLon0.09_PT076H.grib2 2026-04-26 21:43 552K
20260426T18Z_MSC_RDPS_Pressure-Trend3h_Sfc_RLatLon0.09_PT076H.grib2 2026-04-26 21:43 1.2M
20260426T18Z_MSC_RDPS_Pressure_MSL_RLatLon0.09_PT076H.grib2 2026-04-26 21:43 330K
20260426T18Z_MSC_RDPS_Pressure_PVU-1.5_RLatLon0.09_PT076H.grib2 2026-04-26 21:43 2.3M
20260426T18Z_MSC_RDPS_Pressure_PVU-1_RLatLon0.09_PT076H.grib2 2026-04-26 21:43 2.4M
20260426T18Z_MSC_RDPS_Pressure_PVU-2_RLatLon0.09_PT076H.grib2 2026-04-26 21:43 2.4M
20260426T18Z_MSC_RDPS_Pressure_Sfc_RLatLon0.09_PT076H.grib2 2026-04-26 21:43 500K
20260426T18Z_MSC_RDPS_RadiativeTemp_Sfc_RLatLon0.09_PT076H.grib2 2026-04-26 21:43 319K
20260426T18Z_MSC_RDPS_Rain-Accum1h_Sfc_RLatLon0.09_PT076H.grib2 2026-04-26 21:43 570K
20260426T18Z_MSC_RDPS_Rain-Accum_Sfc_RLatLon0.09_PT076H.grib2 2026-04-26 21:43 1.7M
20260426T18Z_MSC_RDPS_RelativeHumidity_AGL-2m_RLatLon0.09_PT076H.grib2 2026-04-26 21:43 1.0M
20260426T18Z_MSC_RDPS_RelativeHumidity_IsbL-0010_RLatLon0.09_PT076H.grib2 2026-04-26 21:43 691K
20260426T18Z_MSC_RDPS_RelativeHumidity_IsbL-0020_RLatLon0.09_PT076H.grib2 2026-04-26 21:43 639K
20260426T18Z_MSC_RDPS_RelativeHumidity_IsbL-0030_RLatLon0.09_PT076H.grib2 2026-04-26 21:43 606K
20260426T18Z_MSC_RDPS_RelativeHumidity_IsbL-0050_RLatLon0.09_PT076H.grib2 2026-04-26 21:43 248K
20260426T18Z_MSC_RDPS_RelativeHumidity_IsbL-0100_RLatLon0.09_PT076H.grib2 2026-04-26 21:43 281K
20260426T18Z_MSC_RDPS_RelativeHumidity_IsbL-0150_RLatLon0.09_PT076H.grib2 2026-04-26 21:43 420K
20260426T18Z_MSC_RDPS_RelativeHumidity_IsbL-0175_RLatLon0.09_PT076H.grib2 2026-04-26 21:43 491K
20260426T18Z_MSC_RDPS_RelativeHumidity_IsbL-0200_RLatLon0.09_PT076H.grib2 2026-04-26 21:43 569K
20260426T18Z_MSC_RDPS_RelativeHumidity_IsbL-0225_RLatLon0.09_PT076H.grib2 2026-04-26 21:43 634K
20260426T18Z_MSC_RDPS_RelativeHumidity_IsbL-0250_RLatLon0.09_PT076H.grib2 2026-04-26 21:43 703K
20260426T18Z_MSC_RDPS_RelativeHumidity_IsbL-0275_RLatLon0.09_PT076H.grib2 2026-04-26 21:43 728K
20260426T18Z_MSC_RDPS_RelativeHumidity_IsbL-0300_RLatLon0.09_PT076H.grib2 2026-04-26 21:43 766K
20260426T18Z_MSC_RDPS_RelativeHumidity_IsbL-0350_RLatLon0.09_PT076H.grib2 2026-04-26 21:43 782K
20260426T18Z_MSC_RDPS_RelativeHumidity_IsbL-0400_RLatLon0.09_PT076H.grib2 2026-04-26 21:43 796K
20260426T18Z_MSC_RDPS_RelativeHumidity_IsbL-0450_RLatLon0.09_PT076H.grib2 2026-04-26 21:43 800K
20260426T18Z_MSC_RDPS_RelativeHumidity_IsbL-0500_RLatLon0.09_PT076H.grib2 2026-04-26 21:43 805K
20260426T18Z_MSC_RDPS_RelativeHumidity_IsbL-0550_RLatLon0.09_PT076H.grib2 2026-04-26 21:43 822K
20260426T18Z_MSC_RDPS_RelativeHumidity_IsbL-0600_RLatLon0.09_PT076H.grib2 2026-04-26 21:43 844K
20260426T18Z_MSC_RDPS_RelativeHumidity_IsbL-0650_RLatLon0.09_PT076H.grib2 2026-04-26 21:43 855K
20260426T18Z_MSC_RDPS_RelativeHumidity_IsbL-0700_RLatLon0.09_PT076H.grib2 2026-04-26 21:43 877K
20260426T18Z_MSC_RDPS_RelativeHumidity_IsbL-0750_RLatLon0.09_PT076H.grib2 2026-04-26 21:43 920K
20260426T18Z_MSC_RDPS_RelativeHumidity_IsbL-0800_RLatLon0.09_PT076H.grib2 2026-04-26 21:43 1.0M
20260426T18Z_MSC_RDPS_RelativeHumidity_IsbL-0850_RLatLon0.09_PT076H.grib2 2026-04-26 21:43 1.0M
20260426T18Z_MSC_RDPS_RelativeHumidity_IsbL-0875_RLatLon0.09_PT076H.grib2 2026-04-26 21:43 1.0M
20260426T18Z_MSC_RDPS_RelativeHumidity_IsbL-0900_RLatLon0.09_PT076H.grib2 2026-04-26 21:43 1.1M
20260426T18Z_MSC_RDPS_RelativeHumidity_IsbL-0925_RLatLon0.09_PT076H.grib2 2026-04-26 21:43 1.1M
20260426T18Z_MSC_RDPS_RelativeHumidity_IsbL-0950_RLatLon0.09_PT076H.grib2 2026-04-26 21:43 1.1M
20260426T18Z_MSC_RDPS_RelativeHumidity_IsbL-0970_RLatLon0.09_PT076H.grib2 2026-04-26 21:43 1.0M
20260426T18Z_MSC_RDPS_RelativeHumidity_IsbL-0985_RLatLon0.09_PT076H.grib2 2026-04-26 21:43 1.0M
20260426T18Z_MSC_RDPS_RelativeHumidity_IsbL-1000_RLatLon0.09_PT076H.grib2 2026-04-26 21:43 1.0M
20260426T18Z_MSC_RDPS_RelativeHumidity_IsbL-1015_RLatLon0.09_PT076H.grib2 2026-04-26 21:43 1.0M
20260426T18Z_MSC_RDPS_Runoff-Accum_Sfc_RLatLon0.09_PT076H.grib2 2026-04-26 21:43 63K
20260426T18Z_MSC_RDPS_SWEATIndex_Sfc_RLatLon0.09_PT076H.grib2 2026-04-26 21:43 2.4M
20260426T18Z_MSC_RDPS_SeeingIndex_EAtm_RLatLon0.09_PT076H.grib2 2026-04-26 21:43 1.0M
20260426T18Z_MSC_RDPS_SensibleHeatNetFlux_Sfc_RLatLon0.09_PT076H.grib2 2026-04-26 21:43 345K
20260426T18Z_MSC_RDPS_ShowalterIndex_IsbL-0500_RLatLon0.09_PT076H.grib2 2026-04-26 21:43 2.6M
20260426T18Z_MSC_RDPS_SkyTransparencyIndex_EAtm_RLatLon0.09_PT076H.grib2 2026-04-26 21:43 692K
20260426T18Z_MSC_RDPS_Snow-Accum1h_Sfc_RLatLon0.09_PT076H.grib2 2026-04-26 21:43 453K
20260426T18Z_MSC_RDPS_Snow-Accum_Sfc_RLatLon0.09_PT076H.grib2 2026-04-26 21:43 863K
20260426T18Z_MSC_RDPS_SnowDensity_Sfc_RLatLon0.09_PT076H.grib2 2026-04-26 21:43 186K
20260426T18Z_MSC_RDPS_SnowDepth_Sfc_RLatLon0.09_PT076H.grib2 2026-04-26 21:43 698K
20260426T18Z_MSC_RDPS_SoilTemp_DBS-0to10cm_RLatLon0.09_PT076H.grib2 2026-04-26 21:43 246K
20260426T18Z_MSC_RDPS_SoilTemp_Sfc_RLatLon0.09_PT076H.grib2 2026-04-26 21:43 290K
20260426T18Z_MSC_RDPS_SoilVolumetricIceContent_Sfc_RLatLon0.09_PT076H.grib2 2026-04-26 21:43 165K
20260426T18Z_MSC_RDPS_SoilVolumetricWaterContent_DBS-0to10cm_RLatLon0.09_PT076H.grib2 2026-04-26 21:43 267K
20260426T18Z_MSC_RDPS_SoilVolumetricWaterContent_DBS-0to1cm_RLatLon0.09_PT076H.grib2 2026-04-26 21:43 340K
20260426T18Z_MSC_RDPS_SpecificHumidity_AGL-120m_RLatLon0.09_PT076H.grib2 2026-04-26 21:43 489K
20260426T18Z_MSC_RDPS_SpecificHumidity_AGL-2m_RLatLon0.09_PT076H.grib2 2026-04-26 21:43 654K
20260426T18Z_MSC_RDPS_SpecificHumidity_AGL-40m_RLatLon0.09_PT076H.grib2 2026-04-26 21:43 494K
20260426T18Z_MSC_RDPS_SpecificHumidity_AGL-80m_RLatLon0.09_PT076H.grib2 2026-04-26 21:43 490K
20260426T18Z_MSC_RDPS_SpecificHumidity_IsbL-0001_RLatLon0.09_PT076H.grib2 2026-04-26 21:43 352K
20260426T18Z_MSC_RDPS_SpecificHumidity_IsbL-0005_RLatLon0.09_PT076H.grib2 2026-04-26 21:43 348K
20260426T18Z_MSC_RDPS_SpecificHumidity_IsbL-0010_RLatLon0.09_PT076H.grib2 2026-04-26 21:43 387K
20260426T18Z_MSC_RDPS_SpecificHumidity_IsbL-0020_RLatLon0.09_PT076H.grib2 2026-04-26 21:43 485K
20260426T18Z_MSC_RDPS_SpecificHumidity_IsbL-0030_RLatLon0.09_PT076H.grib2 2026-04-26 21:43 437K
20260426T18Z_MSC_RDPS_SpecificHumidity_IsbL-0050_RLatLon0.09_PT076H.grib2 2026-04-26 21:43 445K
20260426T18Z_MSC_RDPS_SpecificHumidity_IsbL-0100_RLatLon0.09_PT076H.grib2 2026-04-26 21:43 347K
20260426T18Z_MSC_RDPS_SpecificHumidity_IsbL-0150_RLatLon0.09_PT076H.grib2 2026-04-26 21:43 485K
20260426T18Z_MSC_RDPS_SpecificHumidity_IsbL-0175_RLatLon0.09_PT076H.grib2 2026-04-26 21:43 448K
20260426T18Z_MSC_RDPS_SpecificHumidity_IsbL-0200_RLatLon0.09_PT076H.grib2 2026-04-26 21:43 484K
20260426T18Z_MSC_RDPS_SpecificHumidity_IsbL-0225_RLatLon0.09_PT076H.grib2 2026-04-26 21:43 469K
20260426T18Z_MSC_RDPS_SpecificHumidity_IsbL-0250_RLatLon0.09_PT076H.grib2 2026-04-26 21:43 527K
20260426T18Z_MSC_RDPS_SpecificHumidity_IsbL-0275_RLatLon0.09_PT076H.grib2 2026-04-26 21:43 483K
20260426T18Z_MSC_RDPS_SpecificHumidity_IsbL-0300_RLatLon0.09_PT076H.grib2 2026-04-26 21:43 452K
20260426T18Z_MSC_RDPS_SpecificHumidity_IsbL-0350_RLatLon0.09_PT076H.grib2 2026-04-26 21:43 565K
20260426T18Z_MSC_RDPS_SpecificHumidity_IsbL-0400_RLatLon0.09_PT076H.grib2 2026-04-26 21:43 520K
20260426T18Z_MSC_RDPS_SpecificHumidity_IsbL-0450_RLatLon0.09_PT076H.grib2 2026-04-26 21:43 572K
20260426T18Z_MSC_RDPS_SpecificHumidity_IsbL-0500_RLatLon0.09_PT076H.grib2 2026-04-26 21:43 508K
20260426T18Z_MSC_RDPS_SpecificHumidity_IsbL-0550_RLatLon0.09_PT076H.grib2 2026-04-26 21:43 583K
20260426T18Z_MSC_RDPS_SpecificHumidity_IsbL-0600_RLatLon0.09_PT076H.grib2 2026-04-26 21:43 639K
20260426T18Z_MSC_RDPS_SpecificHumidity_IsbL-0650_RLatLon0.09_PT076H.grib2 2026-04-26 21:43 557K
20260426T18Z_MSC_RDPS_SpecificHumidity_IsbL-0700_RLatLon0.09_PT076H.grib2 2026-04-26 21:43 600K
20260426T18Z_MSC_RDPS_SpecificHumidity_IsbL-0750_RLatLon0.09_PT076H.grib2 2026-04-26 21:43 667K
20260426T18Z_MSC_RDPS_SpecificHumidity_IsbL-0800_RLatLon0.09_PT076H.grib2 2026-04-26 21:43 735K
20260426T18Z_MSC_RDPS_SpecificHumidity_IsbL-0850_RLatLon0.09_PT076H.grib2 2026-04-26 21:43 803K
20260426T18Z_MSC_RDPS_SpecificHumidity_IsbL-0875_RLatLon0.09_PT076H.grib2 2026-04-26 21:43 829K
20260426T18Z_MSC_RDPS_SpecificHumidity_IsbL-0900_RLatLon0.09_PT076H.grib2 2026-04-26 21:43 705K
20260426T18Z_MSC_RDPS_SpecificHumidity_IsbL-0925_RLatLon0.09_PT076H.grib2 2026-04-26 21:43 706K
20260426T18Z_MSC_RDPS_SpecificHumidity_IsbL-0950_RLatLon0.09_PT076H.grib2 2026-04-26 21:43 705K
20260426T18Z_MSC_RDPS_SpecificHumidity_IsbL-0970_RLatLon0.09_PT076H.grib2 2026-04-26 21:43 692K
20260426T18Z_MSC_RDPS_SpecificHumidity_IsbL-0985_RLatLon0.09_PT076H.grib2 2026-04-26 21:43 683K
20260426T18Z_MSC_RDPS_SpecificHumidity_IsbL-1000_RLatLon0.09_PT076H.grib2 2026-04-26 21:43 676K
20260426T18Z_MSC_RDPS_SpecificHumidity_IsbL-1015_RLatLon0.09_PT076H.grib2 2026-04-26 21:43 664K
20260426T18Z_MSC_RDPS_SpecificHumidity_Sfc_RLatLon0.09_PT076H.grib2 2026-04-26 21:43 336K
20260426T18Z_MSC_RDPS_StormRelativeHelicity_EtaL-10000_RLatLon0.09_PT076H.grib2 2026-04-26 21:43 1.1M
20260426T18Z_MSC_RDPS_StormSeverityIndex_EtaL-10000_RLatLon0.09_PT076H.grib2 2026-04-26 21:43 1.1M
20260426T18Z_MSC_RDPS_Thickness_IsbL-0850to0700_RLatLon0.09_PT076H.grib2 2026-04-26 21:43 178K
20260426T18Z_MSC_RDPS_Thickness_IsbL-1000to0500_RLatLon0.09_PT076H.grib2 2026-04-26 21:43 140K
20260426T18Z_MSC_RDPS_Thickness_IsbL-1000to0850_RLatLon0.09_PT076H.grib2 2026-04-26 21:43 187K
20260426T18Z_MSC_RDPS_TotalCloudCover_Sfc_RLatLon0.09_PT076H.grib2 2026-04-26 21:43 644K
20260426T18Z_MSC_RDPS_TotalTotalsIndex_Sfc_RLatLon0.09_PT076H.grib2 2026-04-26 21:43 2.4M
20260426T18Z_MSC_RDPS_UVIndex-ClearSky_Sfc_RLatLon0.09_PT076H.grib2 2026-04-26 21:43 175K
20260426T18Z_MSC_RDPS_UVIndex_Sfc_RLatLon0.09_PT076H.grib2 2026-04-26 21:43 410K
20260426T18Z_MSC_RDPS_UpwardLongwaveRadiationFlux_NTAtm_RLatLon0.09_PT076H.grib2 2026-04-26 21:43 389K
20260426T18Z_MSC_RDPS_UpwardShortwaveRadiationFlux_NTAtm_RLatLon0.09_PT076H.grib2 2026-04-26 21:43 451K
20260426T18Z_MSC_RDPS_VerticalVelocity_IsbL-0250_RLatLon0.09_PT076H.grib2 2026-04-26 21:43 438K
20260426T18Z_MSC_RDPS_VerticalVelocity_IsbL-0500_RLatLon0.09_PT076H.grib2 2026-04-26 21:43 545K
20260426T18Z_MSC_RDPS_VerticalVelocity_IsbL-0700_RLatLon0.09_PT076H.grib2 2026-04-26 21:43 598K
20260426T18Z_MSC_RDPS_VerticalVelocity_IsbL-0850_RLatLon0.09_PT076H.grib2 2026-04-26 21:43 692K
20260426T18Z_MSC_RDPS_VerticalWindShear_EtaL-6500_RLatLon0.09_PT076H.grib2 2026-04-26 21:43 1.2M
20260426T18Z_MSC_RDPS_WindChill_Sfc_RLatLon0.09_PT076H.grib2 2026-04-26 21:43 1.1M
20260426T18Z_MSC_RDPS_WindDir_AGL-10m_RLatLon0.09_PT076H.grib2 2026-04-26 21:43 946K
20260426T18Z_MSC_RDPS_WindDir_AGL-120m_RLatLon0.09_PT076H.grib2 2026-04-26 21:43 600K
20260426T18Z_MSC_RDPS_WindDir_AGL-40m_RLatLon0.09_PT076H.grib2 2026-04-26 21:43 618K
20260426T18Z_MSC_RDPS_WindDir_AGL-80m_RLatLon0.09_PT076H.grib2 2026-04-26 21:43 607K
20260426T18Z_MSC_RDPS_WindDir_IsbL-0001_RLatLon0.09_PT076H.grib2 2026-04-26 21:43 307K
20260426T18Z_MSC_RDPS_WindDir_IsbL-0005_RLatLon0.09_PT076H.grib2 2026-04-26 21:43 348K
20260426T18Z_MSC_RDPS_WindDir_IsbL-0010_RLatLon0.09_PT076H.grib2 2026-04-26 21:43 385K
20260426T18Z_MSC_RDPS_WindDir_IsbL-0020_RLatLon0.09_PT076H.grib2 2026-04-26 21:43 406K
20260426T18Z_MSC_RDPS_WindDir_IsbL-0030_RLatLon0.09_PT076H.grib2 2026-04-26 21:43 414K
20260426T18Z_MSC_RDPS_WindDir_IsbL-0050_RLatLon0.09_PT076H.grib2 2026-04-26 21:43 428K
20260426T18Z_MSC_RDPS_WindDir_IsbL-0100_RLatLon0.09_PT076H.grib2 2026-04-26 21:43 427K
20260426T18Z_MSC_RDPS_WindDir_IsbL-0150_RLatLon0.09_PT076H.grib2 2026-04-26 21:43 414K
20260426T18Z_MSC_RDPS_WindDir_IsbL-0175_RLatLon0.09_PT076H.grib2 2026-04-26 21:43 435K
20260426T18Z_MSC_RDPS_WindDir_IsbL-0200_RLatLon0.09_PT076H.grib2 2026-04-26 21:43 447K
20260426T18Z_MSC_RDPS_WindDir_IsbL-0225_RLatLon0.09_PT076H.grib2 2026-04-26 21:43 451K
20260426T18Z_MSC_RDPS_WindDir_IsbL-0250_RLatLon0.09_PT076H.grib2 2026-04-26 21:43 454K
20260426T18Z_MSC_RDPS_WindDir_IsbL-0275_RLatLon0.09_PT076H.grib2 2026-04-26 21:43 481K
20260426T18Z_MSC_RDPS_WindDir_IsbL-0300_RLatLon0.09_PT076H.grib2 2026-04-26 21:43 475K
20260426T18Z_MSC_RDPS_WindDir_IsbL-0350_RLatLon0.09_PT076H.grib2 2026-04-26 21:43 493K
20260426T18Z_MSC_RDPS_WindDir_IsbL-0400_RLatLon0.09_PT076H.grib2 2026-04-26 21:43 509K
20260426T18Z_MSC_RDPS_WindDir_IsbL-0450_RLatLon0.09_PT076H.grib2 2026-04-26 21:43 526K
20260426T18Z_MSC_RDPS_WindDir_IsbL-0500_RLatLon0.09_PT076H.grib2 2026-04-26 21:43 540K
20260426T18Z_MSC_RDPS_WindDir_IsbL-0550_RLatLon0.09_PT076H.grib2 2026-04-26 21:43 559K
20260426T18Z_MSC_RDPS_WindDir_IsbL-0600_RLatLon0.09_PT076H.grib2 2026-04-26 21:43 590K
20260426T18Z_MSC_RDPS_WindDir_IsbL-0650_RLatLon0.09_PT076H.grib2 2026-04-26 21:43 628K
20260426T18Z_MSC_RDPS_WindDir_IsbL-0700_RLatLon0.09_PT076H.grib2 2026-04-26 21:43 670K
20260426T18Z_MSC_RDPS_WindDir_IsbL-0750_RLatLon0.09_PT076H.grib2 2026-04-26 21:43 722K
20260426T18Z_MSC_RDPS_WindDir_IsbL-0800_RLatLon0.09_PT076H.grib2 2026-04-26 21:43 784K
20260426T18Z_MSC_RDPS_WindDir_IsbL-0850_RLatLon0.09_PT076H.grib2 2026-04-26 21:43 851K
20260426T18Z_MSC_RDPS_WindDir_IsbL-0875_RLatLon0.09_PT076H.grib2 2026-04-26 21:43 875K
20260426T18Z_MSC_RDPS_WindDir_IsbL-0900_RLatLon0.09_PT076H.grib2 2026-04-26 21:43 891K
20260426T18Z_MSC_RDPS_WindDir_IsbL-0925_RLatLon0.09_PT076H.grib2 2026-04-26 21:43 901K
20260426T18Z_MSC_RDPS_WindDir_IsbL-0950_RLatLon0.09_PT076H.grib2 2026-04-26 21:43 900K
20260426T18Z_MSC_RDPS_WindDir_IsbL-0970_RLatLon0.09_PT076H.grib2 2026-04-26 21:43 907K
20260426T18Z_MSC_RDPS_WindDir_IsbL-0985_RLatLon0.09_PT076H.grib2 2026-04-26 21:43 915K
20260426T18Z_MSC_RDPS_WindDir_IsbL-1000_RLatLon0.09_PT076H.grib2 2026-04-26 21:43 925K
20260426T18Z_MSC_RDPS_WindDir_IsbL-1015_RLatLon0.09_PT076H.grib2 2026-04-26 21:43 939K
20260426T18Z_MSC_RDPS_WindGust-Max_AGL-10m_RLatLon0.09_PT076H.grib2 2026-04-26 21:43 1.0M
20260426T18Z_MSC_RDPS_WindGust-Min_AGL-10m_RLatLon0.09_PT076H.grib2 2026-04-26 21:43 970K
20260426T18Z_MSC_RDPS_WindGust_AGL-10m_RLatLon0.09_PT076H.grib2 2026-04-26 21:43 1.0M
20260426T18Z_MSC_RDPS_WindSpeed_AGL-10m_RLatLon0.09_PT076H.grib2 2026-04-26 21:43 827K
20260426T18Z_MSC_RDPS_WindSpeed_AGL-120m_RLatLon0.09_PT076H.grib2 2026-04-26 21:43 525K
20260426T18Z_MSC_RDPS_WindSpeed_AGL-40m_RLatLon0.09_PT076H.grib2 2026-04-26 21:43 529K
20260426T18Z_MSC_RDPS_WindSpeed_AGL-80m_RLatLon0.09_PT076H.grib2 2026-04-26 21:43 525K
20260426T18Z_MSC_RDPS_WindSpeed_IsbL-0001_RLatLon0.09_PT076H.grib2 2026-04-26 21:43 256K
20260426T18Z_MSC_RDPS_WindSpeed_IsbL-0005_RLatLon0.09_PT076H.grib2 2026-04-26 21:43 386K
20260426T18Z_MSC_RDPS_WindSpeed_IsbL-0010_RLatLon0.09_PT076H.grib2 2026-04-26 21:43 404K
20260426T18Z_MSC_RDPS_WindSpeed_IsbL-0020_RLatLon0.09_PT076H.grib2 2026-04-26 21:43 326K
20260426T18Z_MSC_RDPS_WindSpeed_IsbL-0030_RLatLon0.09_PT076H.grib2 2026-04-26 21:43 324K
20260426T18Z_MSC_RDPS_WindSpeed_IsbL-0050_RLatLon0.09_PT076H.grib2 2026-04-26 21:43 352K
20260426T18Z_MSC_RDPS_WindSpeed_IsbL-0100_RLatLon0.09_PT076H.grib2 2026-04-26 21:43 484K
20260426T18Z_MSC_RDPS_WindSpeed_IsbL-0150_RLatLon0.09_PT076H.grib2 2026-04-26 21:43 389K
20260426T18Z_MSC_RDPS_WindSpeed_IsbL-0175_RLatLon0.09_PT076H.grib2 2026-04-26 21:43 438K
20260426T18Z_MSC_RDPS_WindSpeed_IsbL-0200_RLatLon0.09_PT076H.grib2 2026-04-26 21:43 455K
20260426T18Z_MSC_RDPS_WindSpeed_IsbL-0225_RLatLon0.09_PT076H.grib2 2026-04-26 21:43 462K
20260426T18Z_MSC_RDPS_WindSpeed_IsbL-0250_RLatLon0.09_PT076H.grib2 2026-04-26 21:43 465K
20260426T18Z_MSC_RDPS_WindSpeed_IsbL-0275_RLatLon0.09_PT076H.grib2 2026-04-26 21:43 481K
20260426T18Z_MSC_RDPS_WindSpeed_IsbL-0300_RLatLon0.09_PT076H.grib2 2026-04-26 21:43 475K
20260426T18Z_MSC_RDPS_WindSpeed_IsbL-0350_RLatLon0.09_PT076H.grib2 2026-04-26 21:43 486K
20260426T18Z_MSC_RDPS_WindSpeed_IsbL-0400_RLatLon0.09_PT076H.grib2 2026-04-26 21:43 469K
20260426T18Z_MSC_RDPS_WindSpeed_IsbL-0450_RLatLon0.09_PT076H.grib2 2026-04-26 21:43 470K
20260426T18Z_MSC_RDPS_WindSpeed_IsbL-0500_RLatLon0.09_PT076H.grib2 2026-04-26 21:43 588K
20260426T18Z_MSC_RDPS_WindSpeed_IsbL-0550_RLatLon0.09_PT076H.grib2 2026-04-26 21:43 588K
20260426T18Z_MSC_RDPS_WindSpeed_IsbL-0600_RLatLon0.09_PT076H.grib2 2026-04-26 21:43 597K
20260426T18Z_MSC_RDPS_WindSpeed_IsbL-0650_RLatLon0.09_PT076H.grib2 2026-04-26 21:43 657K
20260426T18Z_MSC_RDPS_WindSpeed_IsbL-0700_RLatLon0.09_PT076H.grib2 2026-04-26 21:43 681K
20260426T18Z_MSC_RDPS_WindSpeed_IsbL-0750_RLatLon0.09_PT076H.grib2 2026-04-26 21:43 710K
20260426T18Z_MSC_RDPS_WindSpeed_IsbL-0800_RLatLon0.09_PT076H.grib2 2026-04-26 21:43 753K
20260426T18Z_MSC_RDPS_WindSpeed_IsbL-0850_RLatLon0.09_PT076H.grib2 2026-04-26 21:43 805K
20260426T18Z_MSC_RDPS_WindSpeed_IsbL-0875_RLatLon0.09_PT076H.grib2 2026-04-26 21:43 825K
20260426T18Z_MSC_RDPS_WindSpeed_IsbL-0900_RLatLon0.09_PT076H.grib2 2026-04-26 21:43 841K
20260426T18Z_MSC_RDPS_WindSpeed_IsbL-0925_RLatLon0.09_PT076H.grib2 2026-04-26 21:43 850K
20260426T18Z_MSC_RDPS_WindSpeed_IsbL-0950_RLatLon0.09_PT076H.grib2 2026-04-26 21:43 849K
20260426T18Z_MSC_RDPS_WindSpeed_IsbL-0970_RLatLon0.09_PT076H.grib2 2026-04-26 21:43 847K
20260426T18Z_MSC_RDPS_WindSpeed_IsbL-0985_RLatLon0.09_PT076H.grib2 2026-04-26 21:43 843K
20260426T18Z_MSC_RDPS_WindSpeed_IsbL-1000_RLatLon0.09_PT076H.grib2 2026-04-26 21:43 837K
20260426T18Z_MSC_RDPS_WindSpeed_IsbL-1015_RLatLon0.09_PT076H.grib2 2026-04-26 21:43 828K
20260426T18Z_MSC_RDPS_WindU_AGL-10m_RLatLon0.09_PT076H.grib2 2026-04-26 21:43 427K
20260426T18Z_MSC_RDPS_WindU_AGL-120m_RLatLon0.09_PT076H.grib2 2026-04-26 21:43 410K
20260426T18Z_MSC_RDPS_WindU_AGL-40m_RLatLon0.09_PT076H.grib2 2026-04-26 21:43 528K
20260426T18Z_MSC_RDPS_WindU_AGL-80m_RLatLon0.09_PT076H.grib2 2026-04-26 21:43 526K
20260426T18Z_MSC_RDPS_WindU_IsbL-0001_RLatLon0.09_PT076H.grib2 2026-04-26 21:43 245K
20260426T18Z_MSC_RDPS_WindU_IsbL-0005_RLatLon0.09_PT076H.grib2 2026-04-26 21:43 289K
20260426T18Z_MSC_RDPS_WindU_IsbL-0010_RLatLon0.09_PT076H.grib2 2026-04-26 21:43 301K
20260426T18Z_MSC_RDPS_WindU_IsbL-0020_RLatLon0.09_PT076H.grib2 2026-04-26 21:43 355K
20260426T18Z_MSC_RDPS_WindU_IsbL-0030_RLatLon0.09_PT076H.grib2 2026-04-26 21:43 354K
20260426T18Z_MSC_RDPS_WindU_IsbL-0050_RLatLon0.09_PT076H.grib2 2026-04-26 21:43 379K
20260426T18Z_MSC_RDPS_WindU_IsbL-0100_RLatLon0.09_PT076H.grib2 2026-04-26 21:43 438K
20260426T18Z_MSC_RDPS_WindU_IsbL-0150_RLatLon0.09_PT076H.grib2 2026-04-26 21:43 403K
20260426T18Z_MSC_RDPS_WindU_IsbL-0175_RLatLon0.09_PT076H.grib2 2026-04-26 21:43 429K
20260426T18Z_MSC_RDPS_WindU_IsbL-0200_RLatLon0.09_PT076H.grib2 2026-04-26 21:43 445K
20260426T18Z_MSC_RDPS_WindU_IsbL-0225_RLatLon0.09_PT076H.grib2 2026-04-26 21:43 352K
20260426T18Z_MSC_RDPS_WindU_IsbL-0250_RLatLon0.09_PT076H.grib2 2026-04-26 21:43 353K
20260426T18Z_MSC_RDPS_WindU_IsbL-0275_RLatLon0.09_PT076H.grib2 2026-04-26 21:43 367K
20260426T18Z_MSC_RDPS_WindU_IsbL-0300_RLatLon0.09_PT076H.grib2 2026-04-26 21:43 360K
20260426T18Z_MSC_RDPS_WindU_IsbL-0350_RLatLon0.09_PT076H.grib2 2026-04-26 21:43 471K
20260426T18Z_MSC_RDPS_WindU_IsbL-0400_RLatLon0.09_PT076H.grib2 2026-04-26 21:43 470K
20260426T18Z_MSC_RDPS_WindU_IsbL-0450_RLatLon0.09_PT076H.grib2 2026-04-26 21:43 472K
20260426T18Z_MSC_RDPS_WindU_IsbL-0500_RLatLon0.09_PT076H.grib2 2026-04-26 21:43 455K
20260426T18Z_MSC_RDPS_WindU_IsbL-0550_RLatLon0.09_PT076H.grib2 2026-04-26 21:43 456K
20260426T18Z_MSC_RDPS_WindU_IsbL-0600_RLatLon0.09_PT076H.grib2 2026-04-26 21:43 465K
20260426T18Z_MSC_RDPS_WindU_IsbL-0650_RLatLon0.09_PT076H.grib2 2026-04-26 21:43 483K
20260426T18Z_MSC_RDPS_WindU_IsbL-0700_RLatLon0.09_PT076H.grib2 2026-04-26 21:43 504K
20260426T18Z_MSC_RDPS_WindU_IsbL-0750_RLatLon0.09_PT076H.grib2 2026-04-26 21:43 532K
20260426T18Z_MSC_RDPS_WindU_IsbL-0800_RLatLon0.09_PT076H.grib2 2026-04-26 21:43 569K
20260426T18Z_MSC_RDPS_WindU_IsbL-0850_RLatLon0.09_PT076H.grib2 2026-04-26 21:43 615K
20260426T18Z_MSC_RDPS_WindU_IsbL-0875_RLatLon0.09_PT076H.grib2 2026-04-26 21:43 632K
20260426T18Z_MSC_RDPS_WindU_IsbL-0900_RLatLon0.09_PT076H.grib2 2026-04-26 21:43 643K
20260426T18Z_MSC_RDPS_WindU_IsbL-0925_RLatLon0.09_PT076H.grib2 2026-04-26 21:43 650K
20260426T18Z_MSC_RDPS_WindU_IsbL-0950_RLatLon0.09_PT076H.grib2 2026-04-26 21:43 646K
20260426T18Z_MSC_RDPS_WindU_IsbL-0970_RLatLon0.09_PT076H.grib2 2026-04-26 21:43 645K
20260426T18Z_MSC_RDPS_WindU_IsbL-0985_RLatLon0.09_PT076H.grib2 2026-04-26 21:43 781K
20260426T18Z_MSC_RDPS_WindU_IsbL-1000_RLatLon0.09_PT076H.grib2 2026-04-26 21:43 776K
20260426T18Z_MSC_RDPS_WindU_IsbL-1015_RLatLon0.09_PT076H.grib2 2026-04-26 21:43 770K
20260426T18Z_MSC_RDPS_WindV_AGL-10m_RLatLon0.09_PT076H.grib2 2026-04-26 21:43 428K
20260426T18Z_MSC_RDPS_WindV_AGL-120m_RLatLon0.09_PT076H.grib2 2026-04-26 21:43 524K
20260426T18Z_MSC_RDPS_WindV_AGL-40m_RLatLon0.09_PT076H.grib2 2026-04-26 21:43 527K
20260426T18Z_MSC_RDPS_WindV_AGL-80m_RLatLon0.09_PT076H.grib2 2026-04-26 21:43 525K
20260426T18Z_MSC_RDPS_WindV_IsbL-0001_RLatLon0.09_PT076H.grib2 2026-04-26 21:43 247K
20260426T18Z_MSC_RDPS_WindV_IsbL-0005_RLatLon0.09_PT076H.grib2 2026-04-26 21:43 290K
20260426T18Z_MSC_RDPS_WindV_IsbL-0010_RLatLon0.09_PT076H.grib2 2026-04-26 21:43 303K
20260426T18Z_MSC_RDPS_WindV_IsbL-0020_RLatLon0.09_PT076H.grib2 2026-04-26 21:43 319K
20260426T18Z_MSC_RDPS_WindV_IsbL-0030_RLatLon0.09_PT076H.grib2 2026-04-26 21:43 317K
20260426T18Z_MSC_RDPS_WindV_IsbL-0050_RLatLon0.09_PT076H.grib2 2026-04-26 21:43 345K
20260426T18Z_MSC_RDPS_WindV_IsbL-0100_RLatLon0.09_PT076H.grib2 2026-04-26 21:43 335K
20260426T18Z_MSC_RDPS_WindV_IsbL-0150_RLatLon0.09_PT076H.grib2 2026-04-26 21:43 401K
20260426T18Z_MSC_RDPS_WindV_IsbL-0175_RLatLon0.09_PT076H.grib2 2026-04-26 21:43 332K
20260426T18Z_MSC_RDPS_WindV_IsbL-0200_RLatLon0.09_PT076H.grib2 2026-04-26 21:43 344K
20260426T18Z_MSC_RDPS_WindV_IsbL-0225_RLatLon0.09_PT076H.grib2 2026-04-26 21:43 348K
20260426T18Z_MSC_RDPS_WindV_IsbL-0250_RLatLon0.09_PT076H.grib2 2026-04-26 21:43 375K
20260426T18Z_MSC_RDPS_WindV_IsbL-0275_RLatLon0.09_PT076H.grib2 2026-04-26 21:43 388K
20260426T18Z_MSC_RDPS_WindV_IsbL-0300_RLatLon0.09_PT076H.grib2 2026-04-26 21:43 382K
20260426T18Z_MSC_RDPS_WindV_IsbL-0350_RLatLon0.09_PT076H.grib2 2026-04-26 21:43 366K
20260426T18Z_MSC_RDPS_WindV_IsbL-0400_RLatLon0.09_PT076H.grib2 2026-04-26 21:43 367K
20260426T18Z_MSC_RDPS_WindV_IsbL-0450_RLatLon0.09_PT076H.grib2 2026-04-26 21:43 471K
20260426T18Z_MSC_RDPS_WindV_IsbL-0500_RLatLon0.09_PT076H.grib2 2026-04-26 21:43 471K
20260426T18Z_MSC_RDPS_WindV_IsbL-0550_RLatLon0.09_PT076H.grib2 2026-04-26 21:43 473K
20260426T18Z_MSC_RDPS_WindV_IsbL-0600_RLatLon0.09_PT076H.grib2 2026-04-26 21:43 481K
20260426T18Z_MSC_RDPS_WindV_IsbL-0650_RLatLon0.09_PT076H.grib2 2026-04-26 21:43 497K
20260426T18Z_MSC_RDPS_WindV_IsbL-0700_RLatLon0.09_PT076H.grib2 2026-04-26 21:43 501K
20260426T18Z_MSC_RDPS_WindV_IsbL-0750_RLatLon0.09_PT076H.grib2 2026-04-26 21:43 527K
20260426T18Z_MSC_RDPS_WindV_IsbL-0800_RLatLon0.09_PT076H.grib2 2026-04-26 21:43 564K
20260426T18Z_MSC_RDPS_WindV_IsbL-0850_RLatLon0.09_PT076H.grib2 2026-04-26 21:43 610K
20260426T18Z_MSC_RDPS_WindV_IsbL-0875_RLatLon0.09_PT076H.grib2 2026-04-26 21:43 628K
20260426T18Z_MSC_RDPS_WindV_IsbL-0900_RLatLon0.09_PT076H.grib2 2026-04-26 21:43 641K
20260426T18Z_MSC_RDPS_WindV_IsbL-0925_RLatLon0.09_PT076H.grib2 2026-04-26 21:43 787K
20260426T18Z_MSC_RDPS_WindV_IsbL-0950_RLatLon0.09_PT076H.grib2 2026-04-26 21:43 784K
20260426T18Z_MSC_RDPS_WindV_IsbL-0970_RLatLon0.09_PT076H.grib2 2026-04-26 21:43 785K
20260426T18Z_MSC_RDPS_WindV_IsbL-0985_RLatLon0.09_PT076H.grib2 2026-04-26 21:43 782K
20260426T18Z_MSC_RDPS_WindV_IsbL-1000_RLatLon0.09_PT076H.grib2 2026-04-26 21:43 776K
20260426T18Z_MSC_RDPS_WindV_IsbL-1015_RLatLon0.09_PT076H.grib2 2026-04-26 21:43 816K